Date String (YYYY-MM-DD hh:mm:ss) UTC,Instrument flags,Ambient pressure (hPa),Sample flow (lpm),Bypass flow (lpm),Sample temperature (°C),Ambient temperature (°C),ASC tube jacket temperature (°C),LED temperature (°C),Box temperature (°C),Sample RH (%),Span deviation,Mass concentration (μg/m³),Mass concentration (μg/m³),Mass concentration (μg/m³)
DateTimeUTC,F1_M11,P_M11,Q1_M11,Q2_M11,T1_M11,T2_M11,T3_M11,T4_M11,T5_M11,U1_M11,ZSPAN_M11,X0_M11,X2_M11,X1_M11
2022-12-03 18:00:00,,0830.5,5.00,0.00,23.1,22.0,00.0,31.9,24.9,10.3,0000.0,0012.90,0003.79,0002.69
2022-12-03 18:01:00,,0830.4,5.00,0.00,23.1,22.0,00.0,31.9,24.9,10.2,0000.0,0013.52,0003.83,0002.72
2022-12-03 18:02:00,,0830.2,5.00,0.00,23.1,22.0,00.0,31.9,24.9,10.3,0000.0,0013.89,0003.87,0002.75
2022-12-03 18:03:00,,0830.1,5.00,0.00,23.1,22.0,00.0,31.9,25.0,10.5,0000.0,0014.17,0003.86,0002.77
2022-12-03 18:04:00,,0830.1,5.00,0.00,23.1,21.9,00.0,31.9,25.0,10.5,0000.0,0014.00,0003.84,0002.79
2022-12-03 18:05:00,,0830.1,5.00,0.00,23.1,21.7,00.0,31.9,25.0,10.6,0000.0,0014.75,0003.85,0002.85
2022-12-03 18:06:00,,0830.1,5.00,0.00,23.1,21.6,00.0,32.0,24.9,10.5,0000.0,0014.68,0003.85,0002.92
2022-12-03 18:07:00,,0830.3,5.00,0.00,23.1,21.5,00.0,32.0,24.9,10.5,0000.0,0014.33,0003.89,0002.97
2022-12-03 18:08:00,,0830.3,5.00,0.00,23.0,21.5,00.0,31.9,24.9,10.4,0000.0,0013.51,0003.94,0003.02
2022-12-03 18:09:00,,0830.3,4.99,0.00,23.0,21.5,00.0,31.9,24.8,10.4,0000.0,0012.99,0003.96,0003.05
2022-12-03 18:10:00,,0830.3,5.00,0.00,23.0,21.6,00.0,31.9,24.8,10.4,0000.0,0013.01,0003.96,0003.05
2022-12-03 18:11:00,,0830.2,5.00,0.00,23.0,21.6,00.0,31.9,24.8,10.5,0000.0,0012.67,0003.98,0003.06
2022-12-03 18:12:00,,0830.1,5.00,0.00,23.0,21.7,00.0,31.9,24.8,10.6,0000.0,0012.19,0004.01,0003.09
2022-12-03 18:13:00,,0830.1,5.00,0.00,23.0,21.6,00.0,31.9,24.9,10.6,0000.0,0012.25,0004.03,0003.12
2022-12-03 18:14:00,,0830.1,4.99,0.00,23.0,21.6,00.0,31.9,24.9,10.7,0000.0,0012.19,0004.05,0003.13
2022-12-03 18:15:00,,0830.0,5.01,0.00,23.0,21.5,00.0,31.9,24.8,10.6,0000.0,0012.28,0004.09,0003.14
2022-12-03 18:16:00,,0830.1,5.01,0.00,22.9,21.5,00.0,31.9,24.8,10.7,0000.0,0011.61,0004.10,0003.14
2022-12-03 18:17:00,,0830.3,4.99,0.00,22.9,21.5,00.0,31.9,24.8,10.6,0000.0,0011.37,0004.14,0003.14
2022-12-03 18:18:00,,0830.4,4.99,0.00,22.9,21.5,00.0,31.8,24.8,10.5,0000.0,0011.63,0004.18,0003.13
2022-12-03 18:19:00,,0830.2,5.00,0.00,22.9,21.5,00.0,31.8,24.8,10.6,0000.0,0011.10,0004.13,0003.13
2022-12-03 18:20:00,,0830.1,5.01,0.00,22.9,21.6,00.0,31.8,24.7,10.6,0000.0,0010.62,0004.09,0003.12
2022-12-03 18:21:00,,0830.1,5.00,0.00,22.9,21.6,00.0,31.8,24.7,10.6,0000.0,0010.74,0004.13,0003.13
2022-12-03 18:22:00,,0830.1,5.00,0.00,22.9,21.7,00.0,31.8,24.8,10.7,0000.0,0011.69,0004.13,0003.13
2022-12-03 18:23:00,,0830.1,4.99,0.00,22.9,21.7,00.0,31.8,24.8,10.6,0000.0,0011.96,0004.11,0003.12
2022-12-03 18:24:00,,0830.0,5.01,0.00,22.9,21.7,00.0,31.8,24.9,10.6,0000.0,0011.94,0004.08,0003.10
2022-12-03 18:25:00,,0830.0,5.00,0.00,23.0,21.7,00.0,31.8,24.8,10.6,0000.0,0010.73,0004.06,0003.09
2022-12-03 18:26:00,,0830.1,4.98,0.00,23.0,21.7,00.0,31.8,24.8,10.5,0000.0,0010.86,0004.09,0003.09
2022-12-03 18:27:00,,0830.0,5.01,0.00,23.0,21.7,00.0,31.8,24.8,10.5,0000.0,0010.80,0004.08,0003.08
2022-12-03 18:28:00,,0830.0,4.99,0.00,23.0,21.8,00.0,31.8,24.9,10.6,0000.0,0011.57,0004.06,0003.07
2022-12-03 18:29:00,,0829.8,4.99,0.00,23.0,21.8,00.0,31.9,24.9,10.7,0000.0,0012.03,0004.03,0003.07
2022-12-03 18:30:00,,0829.8,5.01,0.00,23.0,21.8,00.0,31.9,24.9,10.8,0000.0,0012.39,0004.07,0003.08
2022-12-03 18:31:00,,0829.8,5.00,0.00,23.0,21.8,00.0,31.9,24.9,10.7,0000.0,0013.16,0004.07,0003.09
2022-12-03 18:32:00,,0829.8,5.00,0.00,23.0,21.8,00.0,31.9,24.9,10.8,0000.0,0014.21,0004.05,0003.06
2022-12-03 18:33:00,,0829.8,4.99,0.00,23.0,21.8,00.0,31.9,24.9,10.7,0000.0,0013.48,0004.01,0003.06
2022-12-03 18:34:00,,0829.9,5.01,0.00,23.0,21.8,00.0,31.9,24.9,10.7,0000.0,0013.32,0004.00,0003.09
2022-12-03 18:35:00,,0829.9,4.98,0.00,23.0,21.8,00.0,31.9,24.9,10.7,0000.0,0013.45,0003.98,0003.11
2022-12-03 18:36:00,,0829.8,5.02,0.00,23.1,21.8,00.0,31.9,24.9,10.7,0000.0,0013.75,0004.00,0003.11
2022-12-03 18:37:00,,0829.6,4.99,0.00,23.1,21.8,00.0,31.9,24.9,10.7,0000.0,0014.25,0003.97,0003.12
2022-12-03 18:38:00,,0829.7,4.99,0.00,23.1,21.9,00.0,31.9,24.9,10.7,0000.0,0014.48,0003.97,0003.12
2022-12-03 18:39:00,,0829.6,5.00,0.00,23.1,21.9,00.0,31.9,24.9,10.8,0000.0,0014.75,0004.01,0003.13
2022-12-03 18:40:00,,0829.7,5.01,0.00,23.1,21.9,00.0,31.9,24.9,10.7,0000.0,0014.35,0003.99,0003.13
2022-12-03 18:41:00,,0829.5,4.99,0.00,23.1,21.9,00.0,31.9,24.9,11.0,0000.0,0014.43,0003.95,0003.12
2022-12-03 18:42:00,,0829.5,5.00,0.00,23.1,22.0,00.0,31.9,24.9,10.9,0000.0,0014.38,0003.97,0003.13
2022-12-03 18:43:00,,0829.5,5.01,0.00,23.1,22.0,00.0,31.9,25.0,10.7,0000.0,0013.57,0003.94,0003.13
2022-12-03 18:44:00,,0829.6,5.00,0.00,23.1,22.0,00.0,31.9,25.0,10.7,0000.0,0013.38,0003.95,0003.14
2022-12-03 18:45:00,,0829.6,4.99,0.00,23.2,22.0,00.0,32.0,25.0,10.6,0000.0,0014.18,0003.95,0003.14
2022-12-03 18:46:00,,0829.6,4.99,0.00,23.2,22.0,00.0,32.0,25.0,10.5,0000.0,0014.70,0003.98,0003.14
2022-12-03 18:47:00,,0829.6,5.00,0.00,23.2,22.0,00.0,32.0,25.0,10.6,0000.0,0014.41,0003.98,0003.14
2022-12-03 18:48:00,,0829.7,5.01,0.00,23.2,22.0,00.0,32.0,25.0,10.9,0000.0,0013.85,0003.97,0003.14
2022-12-03 18:49:00,,0829.7,5.01,0.00,23.2,22.0,00.0,32.0,25.0,10.9,0000.0,0013.51,0003.95,0003.13
2022-12-03 18:50:00,,0829.6,5.00,0.00,23.2,22.0,00.0,32.0,25.0,10.8,0000.0,0013.34,0003.98,0003.13
2022-12-03 18:51:00,,0829.5,5.00,0.00,23.2,22.0,00.0,32.0,25.0,10.6,0000.0,0013.97,0003.95,0003.13
2022-12-03 18:52:00,,0829.5,4.99,0.00,23.2,22.0,00.0,32.0,25.0,10.9,0000.0,0014.58,0003.94,0003.14
2022-12-03 18:53:00,,0829.5,5.00,0.00,23.2,22.1,00.0,32.0,25.0,10.9,0000.0,0014.70,0003.93,0003.15
2022-12-03 18:54:00,,0829.5,5.02,0.00,23.2,22.1,00.0,32.0,25.0,10.8,0000.0,0014.79,0003.98,0003.17
2022-12-03 18:55:00,,0829.5,5.00,0.00,23.3,22.1,00.0,32.1,25.1,10.5,0000.0,0014.93,0004.01,0003.18
2022-12-03 18:56:00,,0829.4,4.99,0.00,23.3,22.1,00.0,32.1,25.1,10.5,0000.0,0013.91,0004.01,0003.18
2022-12-03 18:57:00,,0829.3,5.00,0.00,23.3,22.1,00.0,32.1,25.1,10.3,0000.0,0013.42,0004.01,0003.19
2022-12-03 18:58:00,,0829.4,5.00,0.00,23.3,22.1,00.0,32.1,25.2,10.1,0000.0,0014.40,0004.02,0003.20
2022-12-03 18:59:00,,0829.4,5.00,0.00,23.3,22.1,00.0,32.1,25.2,10.2,0000.0,0014.97,0004.04,0003.20
